Location: Andrest
(43.3200°N, 0.0641°E)
Time: 03:06:27
(UTC+00:00)

COSMO-SKYMED 1 - Pass Details

Date: 15 April 2021
Orbit: 621 x 623 km, 97.9° (Epoch: 18 May)

Event Time Altitude Azimuth Distance (km) Brightness Sun altitude
Rises 04:28:46 0° 142° (SE) 2,893 6.2 -9.2°
Reaches altitude 10° 04:31:05 10° 133° (SE) 1,991 5.5 -8.8°
Maximum altitude 04:34:59 33° 69° (ENE) 1,047 4.6 -8.2°
Drops below altitude 10° 04:38:54 10° 6° (N) 2,004 5.6 -7.5°
Sets 04:41:14 0° 357° (N) 2,915 6.3 -7.1°
